Wind_Speed
28 27 27 26 26 26 26 27 27 26 27 27 26 26 25 25 25 24 24 24 24 24 24 24 23 23 23 23 23 23 23 23 23 23 23 23 23 23 23 24 24 24 24
29 29 29 29 29 29 29 29 29 29 29 29 29 29 28 27 27 26 25 26 25 25 25 25 25 25 24 24 24 24 23 23 23 23 23 23 24 24 24 24 24 24 24
31 31 32 32 32 32 32 32 32 32 32 32 32 31 31 30 29 28 26 27 27 27 27 27 26 26 26 26 25 25 25 25 25 25 25 25 25 25 25 25 25 25 25
34 34 34 35 35 36 36 36 36 36 35 35 35 35 34 33 32 31 29 28 28 29 28 28 28 28 28 27 27 27 27 27 27 27 27 27 26 26 26 26 26 27 27
37 38 38 38 39 39 39 39 39 39 39 39 39 38 38 37 36 35 33 32 31 30 31 30 30 30 30 29 29 29 29 29 29 29 29 29 29 29 29 29 29 29 29
39 40 40 41 41 42 42 42 43 43 43 43 43 42 41 40 39 38 37 35 34 33 33 33 33 32 32 31 31 31 31 31 31 31 31 31 32 32 32 32 32 32 32
42 43 43 44 44 45 45 45 46 46 46 47 47 46 46 44 43 41 41 39 38 37 36 35 35 34 34 34 34 34 34 34 34 34 35 35 35 35 35 36 36 36 36
46 46 47 47 47 48 48 49 49 50 50 50 51 51 50 48 46 45 45 44 42 41 40 39 38 37 37 37 36 37 37 37 37 37 38 38 39 39 39 40 40 40 40
48 49 49 50 50 51 51 52 53 53 54 54 54 54 53 52 51 49 48 47 46 44 43 43 42 41 40 40 39 40 40 40 40 41 42 42 42 43 43 43 43 43 43
48 49 51 52 53 54 55 55 56 56 57 57 57 57 57 56 55 53 51 50 49 48 47 47 46 45 43 43 42 42 42 43 44 45 45 45 46 46 47 47 46 46 47
48 49 51 53 54 56 57 58 58 59 60 60 60 59 59 59 58 56 55 53 52 51 51 50 49 49 47 47 46 46 47 47 47 48 48 48 49 49 50 50 51 51 51
48 49 51 53 55 57 58 60 61 62 63 63 63 63 63 62 61 60 58 56 55 54 53 53 52 51 50 50 50 50 50 49 50 50 50 51 51 51 52 52 53 54 54
48 50 51 53 55 57 59 61 63 64 65 66 65 65 65 64 63 62 61 59 58 56 55 55 55 53 53 54 53 52 52 51 51 52 52 52 53 53 52 53 55 56 56
47 49 51 53 55 57 59 61 63 64 65 65 65 65 65 64 63 62 61 60 59 59 58 57 56 55 56 56 54 54 53 53 53 54 55 55 55 55 55 57 58 58 58
47 48 50 52 55 57 59 61 62 63 63 62 62 62 62 61 61 60 59 59 59 59 58 58 56 56 57 55 55 54 54 55 56 57 57 57 58 58 58 59 59 60 60
45 46 49 51 54 55 57 58 58 58 58 58 58 58 58 58 59 59 58 58 58 57 57 57 57 57 58 58 57 57 57 58 58 58 58 59 59 60 60 61 61 61 62
42 44 46 49 50 52 53 54 54 53 53 52 52 53 54 55 56 56 56 55 56 57 58 58 57 58 60 60 58 59 59 60 59 59 60 61 62 62 63 63 63 63 64
39 42 44 45 46 47 47 46 45 45 45 45 45 47 48 50 52 52 52 52 52 53 56 57 57 57 58 58 59 60 61 61 61 62 62 62 62 62 63 63 63 64 65
37 40 40 41 41 41 40 39 38 37 38 38 38 40 41 43 45 47 47 48 49 50 51 54 55 57 58 58 58 59 60 60 61 62 62 62 62 62 63 64 65 66 67
35 35 36 36 36 36 34 33 32 31 31 31 32 34 35 37 38 40 42 44 45 47 48 49 52 53 54 55 57 57 58 59 60 61 62 62 62 64 65 66 66 66 66
31 32 33 33 33 33 31 29 27 26 26 26 26 27 29 30 32 34 36 37 39 42 44 47 48 50 52 53 55 56 58 59 60 61 62 63 64 65 66 66 66 66 65
29 29 29 29 29 29 27 26 24 22 22 21 21 21 23 25 27 29 30 32 36 39 41 44 47 48 50 51 54 56 57 59 60 61 61 63 64 65 65 65 64 63 62
26 26 27 27 27 26 24 23 22 21 20 19 19 20 21 22 23 26 28 31 34 36 39 41 44 46 49 51 53 55 56 58 59 61 61 62 62 62 61 61 59 57 56
25 24 24 24 24 23 22 22 21 20 18 18 18 18 19 20 22 23 26 28 31 34 37 40 43 45 48 50 53 54 56 57 59 60 59 58 58 57 56 54 52 50 48
23 23 23 23 23 22 22 21 20 19 19 18 19 19 20 21 22 24 27 29 32 34 37 40 42 45 48 50 52 54 55 56 57 57 56 54 52 50 49 48 47 45 44
23 23 23 23 23 22 22 21 20 20 20 20 21 21 22 24 26 27 29 32 34 36 39 41 44 47 49 51 53 53 54 55 54 53 51 49 47 44 42 43 43 42 41
Wind_Direction
290 291 291 291 291 290 289 288 289 289 290 291 290 290 290 291 292 292 292 292 291 291 291 292 293 293 293 294 294 295 297 297 298 297 296 295 294 293 291 290 288 285 283
290 290 291 291 290 288 287 287 287 288 288 288 288 288 288 288 289 289 289 289 289 289 289 289 290 291 292 293 293 294 295 297 297 297 296 295 294 293 291 289 288 286 284
287 288 289 289 288 287 286 286 286 286 286 286 286 285 285 286 286 286 286 287 287 287 287 287 288 289 289 290 291 292 293 295 296 296 295 294 293 292 291 289 287 286 285
286 286 286 286 286 286 286 286 285 284 284 283 283 283 283 283 283 284 284 283 284 285 285 286 286 286 287 288 288 289 291 292 293 293 293 292 292 291 290 288 287 286 284
285 286 285 285 285 285 285 284 284 283 282 282 281 281 282 282 282 282 281 281 281 281 283 283 284 284 285 285 286 287 288 289 290 290 290 290 289 289 289 288 286 285 284
285 285 285 285 284 283 283 282 281 281 280 280 280 279 279 279 279 280 280 279 279 279 279 280 281 281 283 284 284 285 286 287 287 288 288 287 287 287 286 286 285 284 283
284 283 283 283 282 282 281 280 280 279 279 278 278 278 277 277 277 278 278 277 277 277 276 277 278 278 280 281 282 283 283 284 285 285 285 285 285 285 284 283 283 282 281
282 282 283 282 282 282 281 280 279 278 278 277 277 276 276 276 277 276 276 276 276 276 276 276 275 276 277 279 281 281 281 281 283 284 284 283 283 283 282 282 281 280 280
282 282 283 283 282 282 282 281 279 278 277 276 276 276 276 276 275 274 275 275 275 275 276 276 276 276 276 278 279 280 281 281 282 283 282 282 282 282 281 281 280 279 279
280 281 282 282 282 282 282 281 280 279 277 276 275 275 275 274 273 274 274 275 276 276 276 276 276 276 277 277 278 279 281 281 281 281 282 282 282 281 281 281 280 279 279
280 280 281 281 281 281 281 280 279 278 277 275 274 273 273 273 273 273 274 274 275 275 275 276 276 276 276 277 277 279 280 282 282 281 281 282 281 281 280 280 280 279 279
281 281 281 281 281 281 280 279 278 277 276 275 273 272 271 271 272 272 273 273 273 273 274 276 277 277 277 279 279 279 279 281 282 281 282 283 282 281 280 280 280 280 279
283 283 283 283 282 282 281 280 278 277 275 274 272 271 270 269 269 270 271 271 271 272 273 275 277 277 279 279 279 280 280 281 281 282 283 283 284 282 281 281 281 280 279
285 286 286 286 285 284 282 281 279 277 276 274 272 270 268 268 267 267 268 269 270 270 271 273 275 276 278 277 278 280 281 281 282 283 283 283 283 283 282 283 282 280 280
288 289 289 289 289 287 285 283 281 279 277 274 272 269 267 266 265 265 265 266 268 269 270 272 273 274 276 277 280 280 281 282 284 283 284 284 284 283 284 284 283 281 280
292 293 293 293 293 292 289 286 283 280 278 275 272 268 266 264 262 262 262 263 264 267 270 271 272 273 275 279 282 281 280 282 285 284 284 285 285 285 285 285 284 283 281
297 298 298 299 298 297 294 291 286 282 279 276 272 269 266 263 261 260 260 261 263 265 267 269 271 273 274 277 280 281 282 284 284 284 285 285 285 285 285 285 285 283 283
301 303 304 304 304 303 300 297 292 287 282 277 273 269 267 263 261 259 258 258 261 264 264 267 270 273 275 278 280 281 283 284 285 286 287 286 286 286 286 285 285 284 283
305 308 308 309 309 309 306 303 297 292 287 281 275 271 267 264 262 260 259 259 261 264 266 269 271 274 277 279 281 282 284 285 286 287 288 288 287 287 286 286 286 286 285
308 310 312 314 315 314 312 311 305 299 292 286 280 275 271 266 264 262 260 260 262 265 268 271 273 275 278 280 281 283 285 287 288 289 289 289 288 288 288 287 287 287 286
310 313 315 317 318 318 316 316 313 306 301 294 288 280 274 270 266 264 263 265 266 268 270 272 274 278 279 281 283 285 287 289 290 290 290 290 290 290 290 290 289 288 287
312 315 318 320 321 321 320 317 316 313 309 303 297 287 280 276 270 268 270 271 271 273 274 275 277 280 282 285 287 289 290 291 291 291 292 292 292 292 291 291 290 288 288
313 316 319 321 323 324 324 322 318 317 314 308 303 298 290 284 277 274 274 276 277 278 279 281 282 284 287 289 290 292 293 293 293 294 294 294 293 293 292 291 290 289 289
314 316 320 323 325 326 326 326 324 318 314 310 307 302 299 294 290 288 289 287 287 288 288 288 290 291 292 294 295 295 296 296 296 296 295 295 294 294 293 292 291 291 290
313 316 319 321 324 326 327 327 325 321 318 315 312 307 304 302 299 297 296 295 294 294 294 295 296 297 298 298 298 298 298 298 297 297 297 296 295 294 293 292 292 292 292
312 315 318 320 322 323 324 324 323 320 318 316 314 311 308 306 304 303 302 301 300 300 300 300 301 301 301 301 301 301 300 300 299 298 297 297 295 294 293 293 293 293 294
Height
5847 5847 5846 5846 5846 5845 5845 5844 5843 5842 5842 5841 5840 5839 5838 5837 5836 5836 5834 5833 5832 5831 5829 5828 5827 5826 5825 5824 5823 5822 5821 5819 5818 5817 5816 5815 5815 5814 5814 5813 5813 5812 5812
5841 5841 5841 5841 5840 5839 5839 5838 5837 5837 5836 5835 5834 5833 5832 5832 5831 5831 5829 5828 5827 5826 5824 5823 5822 5821 5820 5819 5818 5817 5815 5814 5813 5812 5811 5810 5809 5808 5808 5807 5807 5806 5806
5835 5835 5835 5834 5834 5833 5832 5832 5831 5830 5830 5829 5828 5827 5826 5825 5825 5824 5824 5822 5821 5820 5819 5818 5817 5816 5814 5813 5812 5811 5810 5809 5808 5806 5805 5804 5803 5803 5802 5801 5801 5800 5800
5829 5828 5828 5827 5827 5826 5825 5825 5824 5823 5822 5821 5821 5820 5819 5818 5817 5817 5817 5816 5815 5814 5813 5812 5811 5810 5808 5807 5806 5805 5804 5803 5802 5800 5799 5798 5797 5796 5796 5795 5794 5794 5793
5822 5821 5821 5820 5819 5818 5817 5817 5816 5815 5814 5813 5812 5812 5811 5810 5809 5809 5809 5809 5808 5807 5806 5805 5804 5803 5802 5800 5799 5798 5797 5796 5795 5794 5793 5792 5791 5790 5789 5788 5787 5787 5786
5814 5813 5812 5811 5810 5809 5809 5807 5806 5805 5805 5804 5803 5803 5802 5802 5801 5800 5800 5800 5800 5799 5798 5797 5796 5795 5794 5793 5792 5791 5789 5788 5787 5786 5785 5784 5783 5782 5781 5780 5780 5779 5778
5805 5804 5803 5802 5801 5800 5799 5798 5796 5795 5794 5793 5793 5792 5792 5792 5792 5791 5791 5790 5790 5790 5789 5789 5787 5787 5786 5785 5783 5782 5781 5780 5779 5778 5777 5776 5775 5774 5773 5772 5771 5770 5770
5795 5794 5793 5792 5791 5790 5789 5787 5786 5785 5783 5782 5781 5780 5780 5781 5782 5781 5780 5780 5780 5779 5779 5779 5778 5777 5776 5775 5774 5773 5772 5771 5770 5769 5768 5767 5765 5764 5763 5762 5762 5761 5760
5786 5784 5783 5782 5780 5779 5777 5776 5774 5773 5772 5770 5769 5768 5768 5769 5769 5769 5769 5769 5768 5769 5768 5768 5767 5767 5766 5765 5764 5762 5761 5760 5759 5758 5757 5756 5755 5754 5753 5752 5751 5750 5749
5777 5775 5773 5770 5769 5767 5765 5763 5761 5760 5758 5757 5757 5756 5755 5755 5755 5756 5757 5757 5756 5757 5757 5756 5755 5755 5755 5755 5753 5751 5750 5749 5748 5747 5746 5744 5743 5742 5741 5740 5739 5738 5738
5767 5765 5762 5760 5757 5755 5753 5751 5748 5746 5744 5743 5742 5742 5741 5740 5740 5742 5743 5745 5744 5744 5744 5744 5743 5743 5742 5742 5741 5739 5738 5736 5735 5734 5733 5731 5730 5729 5728 5727 5726 5725 5724
5756 5754 5751 5749 5746 5743 5740 5737 5734 5732 5730 5728 5727 5727 5727 5726 5727 5727 5728 5730 5730 5731 5730 5731 5730 5729 5729 5728 5727 5726 5724 5723 5722 5721 5719 5718 5716 5715 5714 5713 5712 5711 5710
5745 5743 5739 5736 5733 5730 5726 5722 5719 5716 5714 5712 5710 5710 5710 5711 5712 5712 5712 5714 5715 5716 5716 5717 5716 5716 5715 5714 5713 5712 5710 5709 5708 5707 5705 5703 5702 5701 5699 5698 5697 5695 5694
5734 5730 5727 5723 5719 5715 5711 5706 5702 5699 5696 5694 5693 5692 5692 5694 5695 5697 5698 5699 5700 5701 5702 5702 5702 5701 5701 5700 5699 5697 5696 5695 5694 5692 5690 5688 5687 5685 5684 5682 5681 5679 5678
5722 5718 5714 5709 5705 5699 5694 5689 5685 5681 5678 5676 5675 5674 5674 5676 5678 5680 5682 5683 5684 5685 5687 5688 5687 5687 5686 5684 5684 5683 5681 5680 5678 5677 5675 5673 5671 5669 5667 5665 5664 5662 5660
5710 5705 5700 5695 5689 5683 5677 5672 5667 5663 5660 5658 5657 5657 5658 5659 5661 5664 5666 5668 5669 5670 5671 5673 5673 5673 5671 5670 5669 5668 5667 5665 5663 5661 5659 5656 5655 5653 5650 5648 5646 5644 5642
5698 5693 5687 5681 5675 5668 5661 5655 5650 5646 5643 5642 5641 5641 5641 5643 5645 5647 5650 5652 5654 5656 5657 5658 5658 5658 5657 5656 5655 5653 5651 5649 5647 5644 5642 5640 5638 5635 5633 5630 5627 5625 5623
5687 5681 5675 5669 5662 5654 5647 5640 5635 5631 5629 5627 5626 5626 5627 5629 5630 5633 5636 5638 5640 5642 5643 5644 5644 5644 5643 5641 5640 5638 5636 5633 5630 5627 5625 5622 5620 5617 5614 5611 5608 5605 5603
5677 5671 5664 5658 5650 5643 5636 5629 5624 5621 5618 5616 5615 5614 5615 5616 5618 5620 5623 5626 5628 5629 5631 5631 5631 5631 5629 5627 5625 5623 5620 5617 5614 5610 5608 5605 5601 5598 5595 5591 5588 5585 5582
5668 5662 5656 5649 5642 5635 5628 5622 5617 5613 5610 5607 5606 5605 5605 5606 5608 5610 5612 5614 5617 5618 5619 5619 5619 5617 5615 5613 5611 5608 5604 5601 5597 5594 5590 5586 5583 5579 5575 5571 5567 5563 5559
5660 5654 5648 5642 5635 5629 5623 5617 5612 5608 5604 5602 5600 5599 5599 5599 5600 5602 5604 5605 5607 5608 5608 5607 5606 5604 5602 5600 5597 5593 5590 5585 5581 5577 5573 5568 5564 5559 5554 5549 5545 5541 5537
5653 5648 5642 5636 5630 5624 5618 5613 5609 5604 5601 5598 5596 5595 5594 5594 5595 5595 5596 5597 5598 5598 5597 5596 5595 5592 5589 5586 5583 5579 5575 5570 5565 5561 5556 5549 5544 5538 5533 5528 5523 5519 5515
5647 5642 5637 5632 5626 5620 5615 5610 5606 5602 5599 5596 5594 5592 5591 5590 5590 5590 5590 5590 5590 5588 5587 5586 5583 5580 5577 5573 5569 5565 5559 5553 5547 5542 5538 5530 5524 5519 5512 5507 5503 5500 5496
5642 5637 5632 5627 5622 5617 5612 5608 5603 5600 5597 5594 5592 5590 5588 5587 5586 5585 5584 5583 5581 5580 5577 5575 5572 5568 5564 5559 5554 5549 5543 5537 5530 5524 5520 5514 5506 5501 5494 5488 5485 5481 5478
5637 5632 5628 5623 5619 5614 5610 5605 5601 5598 5595 5592 5589 5587 5585 5583 5581 5580 5578 5576 5574 5571 5567 5564 5560 5555 5550 5545 5539 5533 5527 5521 5514 5506 5501 5497 5491 5485 5479 5473 5469 5466 5463
5631 5628 5624 5619 5615 5611 5607 5603 5599 5595 5592 5589 5586 5583 5581 5578 5576 5573 5571 5568 5564 5561 5557 5552 5548 5542 5536 5530 5524 5517 5511 5504 5497 5491 5484 5480 5475 5471 5468 5461 5455 5452 5449